SCP
0 0 0 0 0 0 0 0 0 0 0 0 0 0 0 0 0 0 0 0 0 0 0 0 0 0 0 0 0 0 0 0 0 0 0 0 0 0 0 0 0 0 0 0
0 0 0 0 0 0 0 0 0 0 0 0 0 0 0 0 0 0 0 0 0 0 0 0 0 0 0 0 0 0 0 0 0 0 0 0 0 0 0 0 0 0 0 0
0 0 0 0 0 0 0 -0 -0 -0 0 0 0 0 0 0 0 0 0 0 0 0 0 0 0 0 0 0 0 0 0 0 0 0 0 0 0 0 0 0 0 0 0 0
0 0 0 0 0 0 -0 -0 -0 -0 -0 0 0 0 0 0 0 0 0 0 0 0 0 0 0 0 0 0 0 0 0 0 0 0 0 0 0 0 0 0 0 0 0 0
0 0 0 0 0 0 -0 -0 -0 -0 0 0 0 0 0 0 0 0 0 0 0 0 0 0 0 0 0 0 0 0 0 0 0 0 0 0 0 0 0 0 0 0 0 0
0 0 0 0 0 0 0 0 0 0 0 0 0 0 0 0 0 0 0 0 0 0 0 0 0 0 0 0 0 0 0 0 0 0 0 0 0 0 0 0 0 0 0 0
0 0 0 0 0 0 0 0 0 0 0 0 0 0 0 0 0 0 0 0 0 0 0 0 0 0 0 0 0 0 0 0 0 0 0 0 0 0 0 0 0 0 0 0
0 0 0 0 0 0 0 0 0 0 0 0 0 0 0 0 0 0 0 0 0 0 0 0 0 0 0 0 0 0 0 0 0 0 0 0 0 0 0 0 0 0 0 0
0 0 0 0 0 0 0 0 0 0 0 0 0 0 0 0 0 0 0 0 0 0 0 0 0 0 0 0 0 0 0 0 0 0 0 0 0 0 0 0 0 0 0 0
0 0 0 0 0 0 0 0 0 0 0 0 0 0 0 0 0 0 0 0 0 0 0 0 0 0 0 0 0 0 0 0 0 0 0 0 0 0 0 0 0 0 0 0
0 0 0 0 0 0 0 0 0 0 0 0 0 0 0 0 0 0 0 0 0 0 0 0 0 0 0 0 0 0 0 0 0 0 0 0 0 0 0 0 0 0 0 0
0 0 0 0 0 0 0 0 0 0 0 0 0 0 0 0 0 0 0 0 0 0 0 0 0 0 0 0 0 0 0 0 0 0 0 0 0 0 0 0 0 0 0 0
0 0 0 0 0 0 0 0 0 0 0 0 0 0 0 0 0 0 0 0 0 0 0 0 0 0 0 0 0 0 0 0 0 0 0 0 0 0 0 0 0 0 0 0
0 0 0 0 0 0 0 0 0 0 0 0 0 0 0 0 0 0 0 0 0 0 0 0 0 0 0 0 0 0 0 0 0 0 0 0 0 0 0 0 0 0 0 0
-0 -0 0 0 0 0 0 0 0 0 0 0 0 0 0 0 0 0 0 0 0 0 0 0 0 0 0 0 0 0 0 0 0 0 0 0 0 0 0 0 0 0 0 0
0 0 0 0 0 0 0 0 0 0 0 0 0 0 0 0 0 0 0 0 0 0 0 0 0 0 0 0 0 0 0 0 0 0 0 0 0 0 0 0 0 0 0 0
0 0 0 0 0 0 0 0 0 0 0 0 0 0 0 0 0 0 0 0 0 0 0 0 0 0 0 0 0 0 0 0 0 0 0 0 0 0 0 0 0 0 0 0
0 0 0 0 0 0 0 0 0 0 0 0 0 0 0 0 0 0 0 0 0 0 0 0 0 0 0 0 0 0 0 0 0 0 0 0 0 0 0 0 0 0 0 0
0 0 0 0 0 0 0 0 0 0 0 0 0 0 0 0 0 0 0 0 0 0 0 0 0 0 0 0 0 0 0 0 0 0 0 0 0 0 0 0 0 0 0 0
0 0 0 0 0 0 0 0 0 0 0 0 0 0 0 0 0 0 0 0 0 0 0 0 0 0 0 0 0 0 0 0 0 0 0 0 0 0 0 0 0 0 0 0
0 0 0 0 0 -0 -0 -0 0 0 0 0 0 0 0 0 0 0 0 0 0 0 0 0 0 0 0 0 0 0 0 0 0 0 0 0 0 0 0 0 0 0 0 0
0 0 0 0 0 0 0 0 0 0 0 0 0 0 0 0 0 0 0 0 0 0 0 0 0 0 0 0 0 0 0 0 0 0 0 0 0 0 0 0 0 0 0 0
0 0 0 0 0 -0 0 0 0 0 0 0 0 0 0 0 0 0 0 0 0 0 0 0 0 0 0 0 0 0 0 0 0 0 0 0 0 0 0 0 0 0 0 0
0 0 0 0 -0 0 0 0 0 0 0 0 0 0 0 0 0 0 0 0 0 0 0 0 0 0 0 0 0 0 0 0 0 0 0 0 0 0 0 0 0 0 0 0
0 0 0 0 0 0 0 0 0 0 0 0 0 0 0 0 0 0 0 0 0 0 0 0 0 0 0 0 0 0 0 0 0 0 0 0 0 0 0 0 0 0 0 0
0 0 0 0 0 0 0 0 0 0 0 0 0 0 0 0 0 0 0 0 0 0 0 0 0 0 0 0 0 0 0 0 0 0 0 0 0 0 0 0 0 0 0 0
0 0 0 0 0 0 0 0 0 0 0 0 0 0 0 0 0 0 0 0 0 0 0 0 0 0 0 0 0 0 0 0 0 0 0 0 0 0 0 0 0 0 0 0
Wind_Speed
8 8 5 7 8 8 9 10 9 11 12 13 11 11 10 9 8 7 7 6 5 4 4 3 3 3 2 2 1 1 1 1 1 1 1 1 1 1 1 1 2 2 3 3
6 5 6 8 9 9 10 10 12 14 14 11 11 9 9 7 7 7 6 6 5 4 3 3 3 3 2 2 2 1 1 1 1 1 1 1 1 1 1 1 1 1 2 2
5 5 5 8 8 9 7 8 8 11 10 8 9 9 9 8 7 7 6 6 5 4 3 3 2 2 2 2 1 1 1 2 2 1 1 1 1 1 1 1 1 1 1 1
4 3 7 2 1 4 7 9 9 10 10 9 9 9 8 7 7 7 6 5 4 3 3 2 2 1 1 1 1 1 1 2 2 1 1 1 1 1 1 1 1 1 1 1
2 5 9 5 2 3 5 7 6 10 11 9 8 8 6 4 5 6 5 5 4 3 2 2 2 1 1 1 1 1 1 2 2 1 1 1 1 1 1 1 1 0 0 1
3 5 7 2 1 1 2 6 2 5 7 6 5 5 5 5 5 5 5 4 3 3 2 2 2 1 1 1 1 1 2 2 2 1 1 1 1 1 1 1 0 0 0 1
6 7 8 1 1 3 4 4 2 4 5 4 4 6 6 6 6 5 5 5 3 2 2 2 1 1 1 1 2 2 2 2 2 1 1 1 1 0 0 0 0 0 0 0
5 7 7 3 5 6 4 3 3 4 4 5 5 6 6 5 5 5 5 4 3 2 2 2 2 1 1 2 2 2 2 1 2 2 1 1 0 0 0 0 0 0 0 0
8 7 3 5 6 4 3 5 5 5 5 5 5 6 5 5 4 4 4 4 3 2 2 2 2 1 1 2 2 1 1 1 2 2 2 1 1 0 0 1 1 1 1 1
7 10 8 8 8 7 6 7 7 6 5 5 5 5 5 5 4 4 4 3 2 2 2 2 2 2 2 2 1 1 0 1 1 1 1 1 1 1 1 1 1 1 1 1
9 9 8 8 9 9 7 7 7 6 5 5 5 5 5 4 4 3 3 3 2 2 2 3 2 2 2 2 1 1 1 1 1 1 1 1 1 1 1 1 2 2 2 2
8 6 6 6 5 6 7 7 7 6 5 5 4 4 3 3 3 3 3 2 2 2 3 3 3 3 2 1 1 1 1 1 1 1 1 1 1 1 1 1 2 2 2 2
7 5 6 7 6 6 6 7 6 5 5 4 3 3 3 3 3 3 3 3 3 3 3 3 2 2 2 2 1 1 1 2 1 1 1 1 1 1 1 1 1 1 1 1
7 5 7 6 6 5 5 4 4 4 3 3 2 2 2 2 2 3 3 3 3 3 3 2 2 3 2 2 1 1 2 2 2 1 1 1 1 1 1 1 0 1 1 1
7 7 7 5 5 4 3 3 3 3 3 3 2 2 2 2 3 3 3 2 2 2 2 2 2 3 2 1 1 2 2 1 1 2 2 1 1 1 1 1 1 0 0 1
5 5 5 5 5 4 3 3 4 4 3 3 2 2 2 2 2 3 3 2 1 2 2 2 3 3 2 2 1 1 1 2 2 2 1 1 1 1 1 1 1 1 0 0
3 4 5 5 5 5 4 4 4 4 3 3 3 2 2 1 2 2 2 2 2 2 3 3 3 2 2 2 2 1 2 2 3 2 1 1 1 1 1 1 1 1 1 0
5 6 5 5 5 5 4 4 3 3 3 3 2 2 2 2 3 3 3 2 2 2 2 2 2 2 2 2 2 2 2 2 2 1 1 1 1 1 1 1 1 1 1 0
4 4 4 4 4 4 3 3 2 2 2 2 2 2 3 3 3 2 2 2 2 2 2 2 3 2 2 2 2 1 2 2 1 1 1 1 1 1 1 1 1 1 1 0
2 2 2 2 2 2 2 2 1 1 1 1 1 1 2 2 2 2 2 2 2 2 2 2 2 2 2 2 2 1 1 1 1 1 1 1 1 1 1 1 1 1 1 1
2 2 2 2 2 1 1 1 1 1 1 1 2 2 2 2 2 2 2 2 2 2 2 3 2 2 1 1 2 1 1 1 1 1 1 1 1 1 1 1 1 1 1 1
2 2 2 1 1 1 1 1 1 1 1 1 1 1 1 2 2 2 3 3 2 3 2 2 2 2 2 2 1 1 1 1 1 1 1 1 1 1 1 1 1 1 1 1
2 2 2 2 1 1 1 0 1 1 1 2 2 2 2 2 2 2 3 2 2 3 3 2 3 3 2 1 1 1 1 1 1 1 1 1 1 1 1 1 1 1 1 1
2 1 1 1 0 1 1 1 1 1 1 2 2 2 2 2 2 2 2 3 4 4 2 3 3 3 1 1 1 1 1 1 1 1 1 1 1 1 1 1 1 1 1 1
2 1 1 2 2 2 1 1 1 1 1 1 2 2 2 2 2 2 2 3 3 3 2 3 3 2 1 1 1 1 1 1 1 1 1 1 1 1 1 1 1 1 1 1
2 2 2 2 2 1 1 1 1 1 1 1 1 1 1 1 2 2 2 2 3 3 2 2 2 1 1 1 1 1 1 1 1 1 1 1 1 1 1 1 1 1 1 1
1 1 1 1 1 1 1 2 2 2 2 2 2 2 2 2 1 1 2 2 2 2 2 1 1 1 1 1 1 1 1 1 1 1 1 1 1 1 1 1 1 1 1 1
Wind_Direction
269 279 268 265 261 226 220 234 248 268 274 284 299 305 306 306 307 310 310 312 311 309 311 322 336 335 334 338 346 335 310 317 336 333 336 346 330 288 260 230 218 212 211 211
271 266 272 273 267 246 241 246 253 268 275 284 296 302 302 303 305 303 303 304 305 305 310 324 333 333 340 346 345 344 337 350 351 352 358 358 354 331 289 252 222 201 202 198
271 304 285 263 248 228 233 234 238 251 268 295 300 303 302 304 302 298 301 301 301 303 313 319 318 322 329 331 349 10 357 357 354 351 356 346 346 306 272 265 228 204 193 187
286 295 253 269 103 230 241 251 240 258 279 290 294 304 300 302 304 302 303 303 308 314 317 317 319 331 334 341 23 25 1 360 359 348 332 330 335 300 288 298 253 209 188 197
247 268 274 271 214 209 236 266 245 254 273 286 304 298 288 308 311 303 306 312 316 320 324 331 340 348 0 25 40 29 4 355 347 336 337 333 314 305 309 286 271 261 230 214
224 255 264 298 92 285 238 262 245 254 267 285 304 293 310 335 317 312 316 321 326 335 333 338 352 5 33 35 28 359 345 342 335 323 302 288 291 305 296 266 251 259 262 256
231 249 266 282 140 186 230 298 321 254 261 262 263 281 310 314 313 322 324 327 335 345 339 340 354 9 20 14 354 339 342 346 337 320 293 284 292 321 297 260 202 195 280 292
210 233 256 144 155 210 268 330 284 273 266 265 277 295 301 305 312 323 329 331 333 336 340 352 7 32 1 334 337 344 349 344 333 327 322 312 327 337 309 189 204 199 218 324
212 234 301 188 221 260 294 279 278 278 277 274 278 285 295 302 307 314 320 325 332 332 343 350 354 16 343 328 337 345 352 339 334 332 327 322 298 281 273 244 232 225 228 257
254 262 265 257 259 265 267 270 275 278 277 269 272 279 285 292 300 306 315 325 332 335 339 336 341 337 325 331 324 301 320 318 322 317 320 331 311 273 253 244 240 236 237 249
253 270 281 259 253 260 265 269 274 274 271 267 270 277 278 284 289 295 305 314 319 314 311 317 329 321 323 327 317 298 302 301 299 296 308 324 318 301 281 271 267 254 244 243
244 244 240 269 282 272 261 260 260 267 276 272 262 268 276 281 288 290 296 304 306 303 303 310 318 316 323 313 285 280 298 300 290 293 305 301 304 351 16 291 301 295 296 287
262 282 270 278 283 274 265 266 265 261 266 269 273 271 273 281 287 289 288 292 291 291 291 298 305 306 314 309 288 275 283 294 292 286 280 285 282 280 325 28 43 39 25 356
257 269 270 267 273 280 277 278 274 273 278 274 273 276 274 281 289 286 284 285 290 293 297 301 304 307 315 312 300 291 290 290 284 274 268 261 263 261 257 257 298 7 31 54
255 253 260 277 282 282 283 275 264 268 278 282 273 268 267 271 278 285 291 292 292 295 300 304 299 304 315 307 289 284 280 277 279 271 264 257 251 248 249 248 249 288 357 38
278 269 266 270 272 274 272 264 258 265 267 263 260 260 259 264 278 286 286 276 267 281 292 292 289 299 304 294 286 283 276 278 284 272 259 250 237 226 223 215 214 220 240 318
263 270 268 272 273 273 267 261 262 265 263 256 257 261 256 256 274 284 288 278 263 268 274 275 284 298 294 287 282 275 270 276 279 279 257 243 235 229 220 207 207 221 246 300
253 262 262 264 263 264 268 268 262 256 255 257 256 244 243 247 262 281 293 294 289 289 280 279 289 294 288 287 279 272 267 271 271 269 259 243 230 221 214 203 198 210 220 205
263 266 266 267 268 261 262 263 260 256 257 241 231 242 256 260 261 274 283 273 264 277 291 299 297 298 293 292 289 273 271 268 265 266 257 219 224 210 205 205 204 211 204 191
268 270 275 283 286 267 258 259 245 241 246 224 221 246 268 276 274 275 277 269 265 282 290 289 285 281 280 271 276 270 262 259 254 251 241 230 224 214 207 206 206 203 190 184
264 270 279 291 309 304 274 247 222 220 220 213 221 240 265 285 283 276 274 285 305 311 294 286 283 276 272 266 262 260 250 250 246 237 230 226 219 211 209 202 200 198 190 196
263 267 274 287 297 308 308 265 221 209 214 237 254 256 263 279 287 286 274 274 295 303 301 281 278 277 272 260 250 243 237 236 239 231 226 224 221 216 212 201 196 194 203 216
254 255 257 265 268 284 307 266 216 209 225 241 247 251 260 272 275 277 288 292 294 291 295 283 285 286 273 255 248 235 227 233 235 230 230 232 230 225 216 208 206 205 219 229
237 241 252 275 264 214 240 256 252 246 248 256 253 252 257 267 276 271 279 285 291 291 285 283 287 290 278 254 240 233 233 237 235 232 244 246 239 234 230 222 219 227 235 243
224 225 218 207 219 238 241 227 217 226 244 263 271 266 257 259 265 279 284 278 283 291 290 285 289 293 283 269 259 252 246 245 242 230 232 239 242 240 239 238 237 237 241 247
222 228 232 243 252 248 230 220 231 244 256 272 283 284 282 279 269 266 270 275 279 288 288 286 285 278 275 272 268 267 261 256 254 247 238 238 241 241 241 239 246 245 247 250
217 231 236 247 246 234 227 226 234 243 246 251 269 278 286 284 271 269 273 278 281 285 286 290 289 276 273 272 272 272 266 257 249 244 241 241 238 236 235 236 243 248 248 248